Location: Zapote
(9.9191°N, 84.0597°W)
Time: 08:15:37
(UTC-06:00)

Courier 1B Rocket - Pass Details

Date: 06 March 2021
Orbit: 920 x 1202 km, 28.2° (Epoch: 09 April)

Event Time Altitude Azimuth Distance (km) Brightness Sun altitude
Rises 20:13:26 0° 294° (WNW) 4,074 9.1 -36.8°
Reaches altitude 10° 20:16:17 10° 292° (WNW) 3,122 8.3 -37.5°
Enters shadow 20:22:15 54° 271° (W) 1,425 5.9 -39.0°
